Kearney, NE

7:58 PM CDT on July 24, 2017 (GMT -0500)
Kearney Municipal

Weather History for KEAR - February, 2014

Change the Weather History Date:

Saturday, February 22, 2014

  Actual Average Record
Temperature  
Mean Temperature 35 °F 30 °F  
Max Temperature 43 °F 42 °F 75 °F (1982)
Min Temperature 27 °F 18 °F -9 °F (1978)
Degree Days  
Heating Degree Days 30 35  
Month to date heating degree days 829  
Cooling Degree Days 0 0  
Month to date cooling degree days 0  
Moisture  
Dew Point 20 °F    
Average Humidity 60    
Maximum Humidity 81    
Minimum Humidity 39    
Precipitation  
Precipitation T in - 0.64 in (1971)
Sea Level Pressure  
Sea Level Pressure 29.98 in    
Wind  
Wind Speed 11 mph (NNE)    
Max Wind Speed 18 mph    
Max Gust Speed 21 mph    
Visibility 10 miles    
Events      
T = Trace of Precipitation, MM = Missing Value Source: NWS Daily Summary

Daily Weather History Graph

Daily Weather History Graph

Search for Another Location

Airport or City:

Trip Planner

Search our weather history database for the weather conditions in past years. The results will help you decide how hot, cold, wet, or windy it might be!

Date:

Astronomy

Feb. 22, 2014 Rise Set
Actual Time 7:20 AM CST 6:19 PM CST
Civil Twilight 6:52 AM CST 6:47 PM CST
Nautical Twilight 6:20 AM CST 7:18 PM CST
Astronomical Twilight 5:49 AM CST 7:50 PM CST
Moon 1:18 AM CST (2/22) 11:30 AM CST (2/22)
Length of Visible Light 11h 54m
Length of Day
10h 58m
Waning Gibbous, 50% of the Moon is Illuminated
Feb 22
Waning Gibbous
Mar 1
New
Mar 8
First Quarter
Mar 16
Full
Mar 23
Last Quarter

Hourly Weather History & Observations

Time (CST) Temp. Windchill Dew Point Humidity Pressure Visibility Wind Dir Wind Speed Gust Speed Precip Events Conditions
12:15 AM 42.8 °F 37.0 °F 19.4 °F 39% 29.85 in 10.0 mi West 10.4 mph - N/A   Overcast
12:35 AM 42.8 °F 38.0 °F 21.2 °F 42% 29.86 in 10.0 mi WSW 8.1 mph - N/A   Overcast
12:55 AM 42.8 °F 37.5 °F 19.4 °F 39% 29.86 in 10.0 mi NW 9.2 mph - N/A   Overcast
1:15 AM 39.2 °F 32.5 °F 21.2 °F 49% 29.87 in 10.0 mi NW 10.4 mph - N/A   Overcast
1:35 AM 37.4 °F 30.8 °F 17.6 °F 45% 29.88 in 10.0 mi WNW 9.2 mph - N/A   Overcast
1:55 AM 37.4 °F 30.8 °F 17.6 °F 45% 29.88 in 10.0 mi WNW 9.2 mph - N/A   Overcast
2:15 AM 37.4 °F 32.1 °F 17.6 °F 45% 29.89 in 10.0 mi WNW 6.9 mph - N/A   Overcast
2:35 AM 37.4 °F 32.8 °F 19.4 °F 48% 29.88 in 10.0 mi WSW 5.8 mph - N/A   Overcast
2:55 AM 37.4 °F 32.8 °F 17.6 °F 45% 29.88 in 10.0 mi West 5.8 mph - N/A   Overcast
3:15 AM 35.6 °F 29.9 °F 19.4 °F 52% 29.88 in 10.0 mi West 6.9 mph - N/A   Overcast
3:35 AM 35.6 °F 30.7 °F 19.4 °F 52% 29.88 in 10.0 mi WNW 5.8 mph - N/A   Overcast
3:55 AM 33.8 °F 28.6 °F 19.4 °F 56% 29.88 in 10.0 mi WNW 5.8 mph - N/A   Mostly Cloudy
4:15 AM 33.8 °F 27.7 °F 19.4 °F 56% 29.88 in 10.0 mi WNW 6.9 mph - N/A   Partly Cloudy
4:35 AM 30.2 °F 22.6 °F 17.6 °F 60% 29.88 in 10.0 mi WNW 8.1 mph - N/A   Partly Cloudy
4:55 AM 30.2 °F 23.4 °F 19.4 °F 64% 29.89 in 10.0 mi WNW 6.9 mph - N/A   Partly Cloudy
5:15 AM 30.2 °F 23.4 °F 19.4 °F 64% 29.89 in 10.0 mi WNW 6.9 mph - N/A   Clear
5:35 AM 30.2 °F 21.9 °F 21.2 °F 69% 29.90 in 10.0 mi NW 9.2 mph - N/A   Clear
5:55 AM 30.2 °F 22.6 °F 19.4 °F 64% 29.91 in 10.0 mi NW 8.1 mph - N/A   Clear
6:15 AM 28.4 °F 19.7 °F 21.2 °F 74% 29.92 in 10.0 mi NW 9.2 mph - N/A   Clear
6:35 AM 28.4 °F 19.7 °F 19.4 °F 69% 29.93 in 10.0 mi NNW 9.2 mph - N/A   Clear
6:55 AM 28.4 °F 20.4 °F 19.4 °F 69% 29.93 in 10.0 mi NNW 8.1 mph - N/A   Mostly Cloudy
7:15 AM 28.4 °F 20.4 °F 19.4 °F 69% 29.93 in 10.0 mi NNW 8.1 mph - N/A   Scattered Clouds
7:35 AM 28.4 °F 20.4 °F 21.2 °F 74% 29.94 in 10.0 mi North 8.1 mph - N/A   Clear
7:55 AM 28.4 °F 19.7 °F 21.2 °F 74% 29.95 in 10.0 mi North 9.2 mph - N/A   Clear
8:15 AM 28.4 °F 19.7 °F 21.2 °F 74% 29.96 in 10.0 mi North 9.2 mph - N/A   Clear
8:35 AM 30.2 °F 21.3 °F 24.8 °F 80% 29.96 in 10.0 mi NNE 10.4 mph - N/A   Clear
8:55 AM 33.8 °F 24.8 °F 24.8 °F 70% 29.96 in 10.0 mi NNE 12.7 mph - N/A   Clear
9:15 AM 33.8 °F 23.5 °F 24.8 °F 70% 29.96 in 10.0 mi NNE 16.1 mph 20.7 mph N/A   Clear
9:35 AM 35.6 °F 26.2 °F 24.8 °F 65% 29.97 in 10.0 mi NNE 15.0 mph - N/A   Clear
9:55 AM 35.6 °F 25.2 °F 24.8 °F 65% 29.97 in 10.0 mi NNE 18.4 mph - N/A   Clear
10:15 AM 35.6 °F 25.9 °F 24.8 °F 65% 29.98 in 10.0 mi NNE 16.1 mph - N/A   Clear
10:35 AM 37.4 °F 28.9 °F 24.8 °F 60% 29.98 in 10.0 mi NE 13.8 mph - N/A   Clear
10:55 AM 37.4 °F 29.3 °F 24.8 °F 60% 29.98 in 10.0 mi NE 12.7 mph - N/A   Clear
11:15 AM 39.2 °F 31.2 °F 24.8 °F 56% 29.98 in 10.0 mi NE 13.8 mph - N/A   Clear
11:35 AM 39.2 °F 30.8 °F 24.8 °F 56% 29.99 in 10.0 mi NE 15.0 mph - N/A   Clear
11:55 AM 39.2 °F 31.6 °F 24.8 °F 56% 29.98 in 10.0 mi NE 12.7 mph 19.6 mph N/A   Clear
12:15 PM 41.0 °F 32.8 °F 23.0 °F 49% 29.99 in 10.0 mi NNE 16.1 mph 19.6 mph N/A   Clear
12:35 PM 39.2 °F 31.6 °F 21.2 °F 49% 29.98 in 10.0 mi NE 12.7 mph 19.6 mph N/A   Partly Cloudy
12:55 PM 39.2 °F 31.2 °F 21.2 °F 49% 29.98 in 10.0 mi NE 13.8 mph 18.4 mph N/A   Clear
1:15 PM 39.2 °F 30.5 °F 19.4 °F 45% 29.97 in 10.0 mi NNE 16.1 mph - N/A   Clear
1:35 PM 41.0 °F 33.5 °F 19.4 °F 42% 29.97 in 10.0 mi NE 13.8 mph 19.6 mph N/A   Clear
1:55 PM 42.8 °F 35.8 °F 19.4 °F 39% 29.97 in 10.0 mi NE 13.8 mph 18.4 mph N/A   Mostly Cloudy
2:15 PM 42.8 °F 34.8 °F 21.2 °F 42% 29.96 in 10.0 mi NNE 17.3 mph 20.7 mph N/A   Mostly Cloudy
2:35 PM 41.0 °F 33.5 °F 21.2 °F 45% 29.97 in 10.0 mi NNE 13.8 mph 17.3 mph N/A   Clear
2:55 PM 41.0 °F 33.5 °F 19.4 °F 42% 29.97 in 10.0 mi NE 13.8 mph 20.7 mph N/A   Clear
3:15 PM 39.2 °F 31.2 °F 19.4 °F 45% 29.97 in 10.0 mi ENE 13.8 mph 18.4 mph N/A   Clear
3:35 PM 39.2 °F 32.5 °F 19.4 °F 45% 29.98 in 10.0 mi NE 10.4 mph 16.1 mph N/A   Clear
3:55 PM 39.2 °F 31.6 °F 19.4 °F 45% 29.98 in 10.0 mi NE 12.7 mph - N/A   Partly Cloudy
4:15 PM 37.4 °F 29.8 °F 17.6 °F 45% 29.98 in 10.0 mi NE 11.5 mph - N/A   Scattered Clouds
4:35 PM 37.4 °F 29.3 °F 17.6 °F 45% 29.98 in 10.0 mi NE 12.7 mph 18.4 mph N/A   Partly Cloudy
4:55 PM 37.4 °F 29.8 °F 17.6 °F 45% 29.99 in 10.0 mi NE 11.5 mph - N/A   Partly Cloudy
5:15 PM 37.4 °F 29.3 °F 17.6 °F 45% 29.99 in 10.0 mi NE 12.7 mph - N/A   Mostly Cloudy
5:35 PM 35.6 °F 27.5 °F 17.6 °F 48% 29.99 in 10.0 mi NE 11.5 mph - N/A   Mostly Cloudy
5:55 PM 35.6 °F 27.5 °F 17.6 °F 48% 30.00 in 10.0 mi ENE 11.5 mph - N/A   Mostly Cloudy
6:15 PM 35.6 °F 28.0 °F 17.6 °F 48% 30.01 in 10.0 mi NE 10.4 mph - N/A   Overcast
6:35 PM 35.6 °F 28.0 °F 17.6 °F 48% 30.01 in 10.0 mi NE 10.4 mph - N/A   Overcast
6:55 PM 35.6 °F 27.5 °F 17.6 °F 48% 30.02 in 10.0 mi NE 11.5 mph - N/A   Overcast
7:15 PM 33.8 °F 25.8 °F 17.6 °F 52% 30.04 in 10.0 mi NE 10.4 mph - N/A   Overcast
7:35 PM 33.8 °F 25.3 °F 15.8 °F 48% 30.05 in 10.0 mi NE 11.5 mph - N/A   Overcast
7:55 PM 33.8 °F 25.8 °F 17.6 °F 52% 30.05 in 10.0 mi NE 10.4 mph - N/A   Overcast
8:15 PM 33.8 °F 25.8 °F 17.6 °F 52% 30.07 in 10.0 mi NE 10.4 mph 19.6 mph N/A   Overcast
8:35 PM 32.0 °F 21.2 °F 15.8 °F 51% 30.08 in 8.0 mi NE 16.1 mph - N/A   Mostly Cloudy
8:55 PM 30.2 °F 18.5 °F 19.4 °F 64% 30.09 in 8.0 mi NNE 17.3 mph - N/A   Overcast
9:15 PM 28.4 °F 17.5 °F 21.2 °F 74% 30.11 in 4.0 mi NE 13.8 mph - N/A   Overcast
9:35 PM 28.4 °F 18.0 °F 21.2 °F 74% 30.11 in 4.0 mi NE 12.7 mph - N/A   Overcast
9:55 PM 26.6 °F 16.8 °F 21.2 °F 80% 30.12 in 6.0 mi NE 10.4 mph - N/A   Overcast
10:15 PM 28.4 °F 19.7 °F 21.2 °F 74% 30.14 in 10.0 mi ENE 9.2 mph - N/A   Overcast
10:35 PM 28.4 °F 19.1 °F 19.4 °F 69% 30.15 in 10.0 mi ENE 10.4 mph - N/A   Overcast
10:55 PM 28.4 °F 18.5 °F 17.6 °F 64% 30.15 in 8.0 mi NE 11.5 mph 18.4 mph N/A   Overcast
11:15 PM 28.4 °F 18.0 °F 17.6 °F 64% 30.15 in 10.0 mi NNE 12.7 mph - N/A   Overcast
11:35 PM 26.6 °F 15.2 °F 17.6 °F 69% 30.15 in 10.0 mi NE 13.8 mph - N/A   Overcast
11:55 PM 26.6 °F 15.2 °F 17.6 °F 69% 30.14 in 10.0 mi NE 13.8 mph - N/A   Overcast